"datetime","temp","dp","rain_mm","uv","solar","mb","wind_mph","gust_mph","windchill","rh"
"2019-02-04 00:00:00",4.0,"",0.0,0.0,0,1021.5,4,7,1.2,""
"2019-02-04 00:01:00",4.1,"",0.0,0.0,0,1021.4,5,13,"-0.3",""
"2019-02-04 00:02:00",4.2,"",0.0,0.0,0,1021.4,2,5,2.1,""
"2019-02-04 00:03:00",4.2,"",0.0,0.0,0,1021.4,3,4,2.7,""
"2019-02-04 00:04:00",4.2,"",0.0,0.0,0,1021.4,2,5,2.2,""
"2019-02-04 00:05:00",4.2,"",0.0,0.0,0,1021.4,4,6,1.8,""
"2019-02-04 00:06:00",4.3,"",0.0,0.0,0,1021.3,3,5,2.2,""
"2019-02-04 00:07:00",4.3,"",0.0,0.0,0,1021.3,3,5,2.2,""
"2019-02-04 00:08:00",4.3,"",0.0,0.0,0,1021.3,3,6,1.9,""
"2019-02-04 00:09:00",4.3,"",0.0,0.0,0,1021.3,4,7,1.6,""
"2019-02-04 00:10:00",4.3,"",0.0,0.0,0,1021.2,3,7,1.6,""
"2019-02-04 00:11:00",4.3,"",0.0,0.0,0,1021.2,5,10,0.7,""
"2019-02-04 00:12:00",4.3,"",0.0,0.0,0,1021.2,2,5,2.3,""
"2019-02-04 00:13:00",4.3,"",0.0,0.0,0,1021.1,3,7,1.6,""
"2019-02-04 00:14:00",4.3,"",0.2,0.0,0,1021.0,2,5,2.3,""
"2019-02-04 00:15:00",4.3,"",0.2,0.0,0,1021.0,2,3,"",""
"2019-02-04 00:16:00",4.3,"",0.2,0.0,0,1021.0,3,6,1.9,""
"2019-02-04 00:17:00",4.3,"",0.2,0.0,0,1021.0,4,9,1.0,""
"2019-02-04 00:18:00",4.3,"",0.2,0.0,0,1020.9,3,5,2.3,""
"2019-02-04 00:19:00",4.3,"",0.2,0.0,0,1021.0,4,6,1.9,""
"2019-02-04 00:20:00",4.3,"",0.2,0.0,0,1021.0,3,6,1.9,""
"2019-02-04 00:21:00",4.3,"",0.2,0.0,0,1021.0,4,9,1.0,""
"2019-02-04 00:22:00",4.4,"",0.2,0.0,0,1021.0,3,4,2.9,""
"2019-02-04 00:23:00",4.4,"",0.2,0.0,0,1021.0,6,12,0.4,""
"2019-02-04 00:24:00",4.4,"",0.2,0.0,0,1021.0,6,15,"-0.2",""
"2019-02-04 00:25:00",4.4,"",0.2,0.0,0,1021.0,5,11,0.6,""
"2019-02-04 00:26:00",4.4,"",0.2,0.0,0,1021.0,3,6,2.0,""
"2019-02-04 00:27:00",4.4,"",0.2,0.0,0,1021.0,3,4,2.9,""
"2019-02-04 00:28:00",4.4,"",0.2,0.0,0,1021.0,2,4,2.9,""
"2019-02-04 00:29:00",4.5,"",0.2,0.0,0,1020.9,4,8,1.5,""
"2019-02-04 00:30:00",4.5,"",0.2,0.0,0,1020.9,3,5,2.5,""
"2019-02-04 00:31:00",4.5,"",0.2,0.0,0,1021.0,4,5,2.5,""
"2019-02-04 00:32:00",4.5,"",0.2,0.0,0,1021.0,3,6,2.1,""
"2019-02-04 00:33:00",4.5,"",0.2,0.0,0,1020.9,3,7,1.9,""
"2019-02-04 00:34:00",4.5,"",0.2,0.0,0,1020.8,4,5,2.5,""
"2019-02-04 00:35:00",4.6,"",0.2,0.0,0,1020.9,3,6,2.3,""
"2019-02-04 00:36:00",4.6,"",0.2,0.0,0,1020.8,4,8,1.6,""
"2019-02-04 00:37:00",4.5,"",0.2,0.0,0,1020.8,5,7,1.9,""
"2019-02-04 00:38:00",4.5,"",0.2,0.0,0,1020.8,2,5,2.5,""
"2019-02-04 00:39:00",4.6,"",0.2,0.0,0,1020.9,6,11,0.9,""
"2019-02-04 00:40:00",4.6,"",0.2,0.0,0,1020.8,6,14,0.3,""
"2019-02-04 00:41:00",4.6,"",0.4,0.0,0,1020.7,3,9,1.3,""
"2019-02-04 00:42:00",4.6,"",0.4,0.0,0,1020.7,4,5,2.7,""
"2019-02-04 00:43:00",4.6,"",0.4,0.0,0,1020.7,3,5,2.7,""
"2019-02-04 00:44:00",4.6,"",0.4,0.0,0,1020.6,3,5,2.7,""
"2019-02-04 00:45:00",4.6,"",0.4,0.0,0,1020.6,2,3,"",""
"2019-02-04 00:46:00",4.6,"",0.4,0.0,0,1020.6,3,4,3.1,""
"2019-02-04 00:47:00",4.6,"",0.4,0.0,0,1020.6,3,5,2.7,""
"2019-02-04 00:48:00",4.6,"",0.4,0.0,0,1020.6,4,8,1.6,""
"2019-02-04 00:49:00",4.6,"",0.4,0.0,0,1020.6,5,7,1.9,""
"2019-02-04 00:50:00",4.6,"",0.4,0.0,0,1020.6,3,5,2.7,""
"2019-02-04 00:51:00",4.6,"",0.4,0.0,0,1020.5,4,6,2.3,""
"2019-02-04 00:52:00",4.6,"",0.4,0.0,0,1020.5,3,5,2.7,""
"2019-02-04 00:53:00",4.6,"",0.4,0.0,0,1020.5,3,8,1.6,""
"2019-02-04 00:54:00",4.6,"",0.4,0.0,0,1020.5,3,7,1.9,""
"2019-02-04 00:55:00",4.6,"",0.4,0.0,0,1020.5,4,9,1.3,""
"2019-02-04 00:56:00",4.6,"",0.4,0.0,0,1020.4,2,4,3.1,""
"2019-02-04 00:57:00",4.6,"",0.4,0.0,0,1020.6,3,8,1.6,""
"2019-02-04 00:58:00",4.6,"",0.4,0.0,0,1020.5,4,8,1.6,""
"2019-02-04 00:59:00",4.6,"",0.4,0.0,0,1020.5,4,5,2.7,""
"2019-02-04 01:00:00",4.6,"",0.4,0.0,0,1020.5,3,4,3.1,""
"2019-02-04 01:01:00",4.6,"",0.4,0.0,0,1020.5,5,14,0.3,""
"2019-02-04 01:02:00",4.6,"",0.6,0.0,0,1020.4,5,9,1.3,""
"2019-02-04 01:03:00",4.6,"",0.6,0.0,0,1020.5,5,9,1.3,""
"2019-02-04 01:04:00",4.6,"",0.6,0.0,0,1020.5,3,4,3.1,""
"2019-02-04 01:05:00",4.6,"",0.6,0.0,0,1020.5,3,5,2.7,""
"2019-02-04 01:06:00",4.6,"",0.6,0.0,0,1020.4,5,11,0.9,""
"2019-02-04 01:07:00",4.6,"",0.6,0.0,0,1020.4,3,6,2.3,""
"2019-02-04 01:08:00",4.6,"",0.6,0.0,0,1020.4,3,4,3.1,""
"2019-02-04 01:09:00",4.6,"",0.6,0.0,0,1020.4,2,3,"",""
"2019-02-04 01:10:00",4.6,"",0.6,0.0,0,1020.3,3,4,3.1,""
"2019-02-04 01:11:00",4.6,"",0.6,0.0,0,1020.3,6,9,1.3,""
"2019-02-04 01:12:00",4.6,"",0.6,0.0,0,1020.3,3,5,2.7,""
"2019-02-04 01:13:00",4.5,"",0.6,0.0,0,1020.2,2,4,3.0,""
"2019-02-04 01:14:00",4.6,"",0.6,0.0,0,1020.3,3,6,2.3,""
"2019-02-04 01:15:00",4.5,"",0.6,0.0,0,1020.2,4,8,1.5,""
"2019-02-04 01:16:00",4.5,"",0.6,0.0,0,1020.2,2,4,3.0,""
"2019-02-04 01:17:00",4.5,"",0.6,0.0,0,1020.2,3,7,1.8,""
"2019-02-04 01:18:00",4.5,"",0.6,0.0,0,1020.2,3,8,1.5,""
"2019-02-04 01:19:00",4.5,"",0.6,0.0,0,1020.2,2,3,"",""
"2019-02-04 01:20:00",4.5,"",0.6,0.0,0,1020.1,3,6,2.1,""
"2019-02-04 01:21:00",4.5,"",0.6,0.0,0,1020.1,2,4,3.0,""
"2019-02-04 01:22:00",4.5,"",0.6,0.0,0,1020.1,3,4,3.0,""
"2019-02-04 01:23:00",4.5,"",0.8,0.0,0,1020.1,3,6,2.0,""
"2019-02-04 01:24:00",4.5,"",0.8,0.0,0,1020.1,4,6,2.0,""
"2019-02-04 01:25:00",4.4,"",0.8,0.0,0,1020.0,4,8,1.4,""
"2019-02-04 01:26:00",4.4,"",0.8,0.0,0,1020.0,6,10,0.8,""
"2019-02-04 01:27:00",4.4,"",0.8,0.0,0,1020.0,5,8,1.4,""
"2019-02-04 01:28:00",4.5,"",0.8,0.0,0,1020.0,2,3,"",""
"2019-02-04 01:29:00",4.5,"",0.8,0.0,0,1019.9,3,7,1.8,""
"2019-02-04 01:30:00",4.5,"",0.8,0.0,0,1019.9,3,6,2.1,""
"2019-02-04 01:31:00",4.5,"",0.8,0.0,0,1019.9,8,13,0.3,""
"2019-02-04 01:32:00",4.5,"",0.8,0.0,0,1019.8,3,7,1.8,""
"2019-02-04 01:33:00",4.5,"",0.8,0.0,0,1019.8,2,4,3.0,""
"2019-02-04 01:34:00",4.5,"",0.8,0.0,0,1019.8,2,3,"",""
"2019-02-04 01:35:00",4.5,"",0.8,0.0,0,1019.7,3,7,1.8,""
"2019-02-04 01:36:00",4.5,"",0.8,0.0,0,1019.7,3,6,2.1,""
"2019-02-04 01:37:00",4.6,"",0.8,0.0,0,1019.7,2,4,3.0,""
"2019-02-04 01:38:00",4.6,"",0.8,0.0,0,1019.7,4,7,1.8,""
"2019-02-04 01:39:00",4.6,"",0.8,0.0,0,1019.6,3,5,2.7,""
"2019-02-04 01:40:00",4.6,"",0.8,0.0,0,1019.7,2,5,2.7,""
"2019-02-04 01:41:00",4.6,"",0.8,0.0,0,1019.7,3,6,2.3,""
"2019-02-04 01:42:00",4.6,"",0.8,0.0,0,1019.7,4,9,1.3,""
"2019-02-04 01:43:00",4.6,"",1.0,0.0,0,1019.7,3,6,2.3,""
"2019-02-04 01:44:00",4.6,"",1.0,0.0,0,1019.7,2,3,"",""
"2019-02-04 01:45:00",4.6,"",1.0,0.0,0,1019.7,2,6,2.3,""
"2019-02-04 01:46:00",4.6,"",1.0,0.0,0,1019.7,3,6,2.3,""
"2019-02-04 01:47:00",4.6,"",1.0,0.0,0,1019.7,4,7,1.9,""
"2019-02-04 01:48:00",4.6,"",1.0,0.0,0,1019.7,3,6,2.3,""
"2019-02-04 01:49:00",4.5,"",1.0,0.0,0,1019.6,5,7,1.9,""
"2019-02-04 01:50:00",4.5,"",1.0,0.0,0,1019.7,4,6,2.1,""
"2019-02-04 01:51:00",4.5,"",1.0,0.0,0,1019.6,3,5,2.5,""
"2019-02-04 01:52:00",4.5,"",1.0,0.0,0,1019.6,3,4,3.0,""
"2019-02-04 01:53:00",4.5,"",1.0,0.0,0,1019.6,2,3,"",""
"2019-02-04 01:54:00",4.5,"",1.0,0.0,0,1019.5,3,5,2.5,""
"2019-02-04 01:55:00",4.5,"",1.0,0.0,0,1019.5,4,8,1.5,""
"2019-02-04 01:56:00",4.5,"",1.0,0.0,0,1019.5,4,7,1.8,""
"2019-02-04 01:57:00",4.5,"",1.0,0.0,0,1019.6,4,12,0.5,""
"2019-02-04 01:58:00",4.5,"",1.0,0.0,0,1019.6,5,8,1.5,""
"2019-02-04 01:59:00",4.6,"",1.0,0.0,0,1019.6,4,10,1.1,""
"2019-02-04 02:00:00",4.6,"",1.0,0.0,0,1019.6,4,7,1.9,""
"2019-02-04 02:01:00",4.6,"",1.0,0.0,0,1019.6,3,4,3.1,""
"2019-02-04 02:02:00",4.6,"",1.2,0.0,0,1019.6,3,7,1.9,""
"2019-02-04 02:03:00",4.6,"",1.2,0.0,0,1019.5,5,7,1.9,""
"2019-02-04 02:04:00",4.6,"",1.2,0.0,0,1019.6,3,7,1.9,""
"2019-02-04 02:05:00",4.6,"",1.2,0.0,0,1019.6,3,6,2.3,""
"2019-02-04 02:06:00",4.6,"",1.2,0.0,0,1019.6,4,10,1.1,""
"2019-02-04 02:07:00",4.6,"",1.2,0.0,0,1019.6,4,9,1.3,""
"2019-02-04 02:08:00",4.6,"",1.2,0.0,0,1019.5,1,3,"",""
"2019-02-04 02:09:00",4.7,"",1.2,0.0,0,1019.5,3,5,2.8,""
"2019-02-04 02:10:00",4.7,"",1.2,0.0,0,1019.4,3,5,2.8,""
"2019-02-04 02:11:00",4.7,"",1.2,0.0,0,1019.4,1,2,"",""
"2019-02-04 02:12:00",4.7,"",1.2,0.0,0,1019.4,2,5,2.8,""
"2019-02-04 02:13:00",4.7,"",1.2,0.0,0,1019.4,5,13,0.6,""
"2019-02-04 02:14:00",4.7,"",1.2,0.0,0,1019.4,5,7,2.0,""
"2019-02-04 02:15:00",4.7,"",1.2,0.0,0,1019.4,3,4,3.2,""
"2019-02-04 02:16:00",4.7,"",1.2,0.0,0,1019.3,3,5,2.8,""
"2019-02-04 02:17:00",4.7,"",1.2,0.0,0,1019.3,3,5,2.8,""
"2019-02-04 02:18:00",4.8,"",1.4,0.0,0,1019.3,5,10,1.2,""
"2019-02-04 02:19:00",4.7,"",1.4,0.0,0,1019.2,3,5,2.8,""
"2019-02-04 02:20:00",4.8,"",1.4,0.0,0,1019.3,4,8,1.7,""
"2019-02-04 02:21:00",4.7,"",1.4,0.0,0,1019.3,3,6,2.4,""
"2019-02-04 02:22:00",4.8,"",1.4,0.0,0,1019.3,3,4,3.4,""
"2019-02-04 02:23:00",4.8,"",1.4,0.0,0,1019.1,4,8,1.9,""
"2019-02-04 02:24:00",4.8,"",1.4,0.0,0,1019.1,4,7,2.2,""
"2019-02-04 02:25:00",4.8,"",1.4,0.0,0,1019.1,3,5,2.9,""
"2019-02-04 02:26:00",4.8,"",1.4,0.0,0,1019.1,5,8,1.9,""
"2019-02-04 02:27:00",4.8,"",1.4,0.0,0,1019.1,4,7,2.2,""
"2019-02-04 02:28:00",4.8,"",1.4,0.0,0,1019.1,3,6,2.5,""
"2019-02-04 02:29:00",4.8,"",1.4,0.0,0,1019.0,6,9,1.6,""
"2019-02-04 02:30:00",4.8,"",1.4,0.0,0,1019.0,6,16,0.2,""
"2019-02-04 02:31:00",4.9,"",1.4,0.0,0,1019.0,7,16,0.2,""
"2019-02-04 02:32:00",4.9,"",1.4,0.0,0,1019.0,4,10,1.5,""
"2019-02-04 02:33:00",4.9,"",1.6,0.0,0,1019.0,3,5,3.0,""
"2019-02-04 02:34:00",4.9,"",1.6,0.0,0,1018.9,3,5,3.0,""
"2019-02-04 02:35:00",4.9,"",1.6,0.0,0,1018.8,4,10,1.5,""
"2019-02-04 02:36:00",5.0,"",1.6,0.0,0,1018.9,5,8,2.0,""
"2019-02-04 02:37:00",5.0,"",1.6,0.0,0,1018.9,6,11,1.4,""
"2019-02-04 02:38:00",5.0,"",1.6,0.0,0,1018.9,6,10,1.6,""
"2019-02-04 02:39:00",5.1,"",1.6,0.0,0,1018.9,2,5,3.1,""
"2019-02-04 02:40:00",5.1,"",1.6,0.0,0,1018.9,5,9,2.0,""
"2019-02-04 02:41:00",5.1,"",1.6,0.0,0,1018.9,3,4,3.7,""
"2019-02-04 02:42:00",5.1,"",1.6,0.0,0,1018.9,4,6,2.9,""
"2019-02-04 02:43:00",5.1,"",1.6,0.0,0,1018.8,4,8,2.2,""
"2019-02-04 02:44:00",5.1,"",1.8,0.0,0,1018.9,7,11,1.5,""
"2019-02-04 02:45:00",5.1,"",1.8,0.0,0,1018.8,5,10,1.7,""
"2019-02-04 02:46:00",5.1,"",1.8,0.0,0,1018.7,5,10,1.7,""
"2019-02-04 02:47:00",5.2,"",1.8,0.0,0,1018.7,5,9,2.1,""
"2019-02-04 02:48:00",5.2,"",1.8,0.0,0,1018.8,4,8,2.3,""
"2019-02-04 02:49:00",5.2,"",1.8,0.0,0,1018.8,4,7,2.6,""
"2019-02-04 02:50:00",5.2,"",1.8,0.0,0,1018.7,3,5,3.4,""
"2019-02-04 02:51:00",5.2,"",1.8,0.0,0,1018.7,4,6,3.0,""
"2019-02-04 02:52:00",5.2,"",1.8,0.0,0,1018.7,3,4,3.8,""
"2019-02-04 02:53:00",5.2,"",1.8,0.0,0,1018.7,4,8,2.3,""
"2019-02-04 02:54:00",5.2,"",1.8,0.0,0,1018.7,3,4,3.8,""
"2019-02-04 02:55:00",5.2,"",1.8,0.0,0,1018.7,3,4,3.8,""
"2019-02-04 02:56:00",5.2,"",2.0,0.0,0,1018.7,3,7,2.6,""
"2019-02-04 02:57:00",5.2,"",2.0,0.0,0,1018.7,3,5,3.4,""
"2019-02-04 02:58:00",5.2,"",2.0,0.0,0,1018.6,4,7,2.6,""
"2019-02-04 02:59:00",5.2,"",2.0,0.0,0,1018.6,6,12,1.4,""
"2019-02-04 03:00:00",5.2,"",2.0,0.0,0,1018.6,4,8,2.3,""
"2019-02-04 03:01:00",5.2,"",2.0,0.0,0,1018.6,2,4,3.8,""
"2019-02-04 03:02:00",5.2,"",2.0,0.0,0,1018.6,1,2,"",""
"2019-02-04 03:03:00",5.2,"",2.0,0.0,0,1018.7,5,8,2.3,""
"2019-02-04 03:04:00",5.2,"",2.0,0.0,0,1018.5,3,5,3.4,""
"2019-02-04 03:05:00",5.2,"",2.0,0.0,0,1018.5,5,12,1.4,""
"2019-02-04 03:06:00",5.2,"",2.0,0.0,0,1018.5,6,12,1.4,""
"2019-02-04 03:07:00",5.2,"",2.0,0.0,0,1018.5,5,11,1.6,""
"2019-02-04 03:08:00",5.2,"",2.0,0.0,0,1018.4,4,5,3.4,""
"2019-02-04 03:09:00",5.2,"",2.0,0.0,0,1018.4,5,9,2.1,""
"2019-02-04 03:10:00",5.2,"",2.2,0.0,0,1018.4,3,7,2.6,""
"2019-02-04 03:11:00",5.2,"",2.2,0.0,0,1018.4,3,4,3.8,""
"2019-02-04 03:12:00",5.2,"",2.2,0.0,0,1018.4,2,4,3.8,""
"2019-02-04 03:13:00",5.2,"",2.2,0.0,0,1018.4,4,7,2.6,""
"2019-02-04 03:14:00",5.2,"",2.2,0.0,0,1018.5,5,11,1.6,""
"2019-02-04 03:15:00",5.2,"",2.2,0.0,0,1018.4,4,8,2.3,""
"2019-02-04 03:16:00",5.2,"",2.2,0.0,0,1018.5,2,5,3.4,""
"2019-02-04 03:17:00",5.2,"",2.2,0.0,0,1018.5,6,12,1.4,""
"2019-02-04 03:18:00",5.2,"",2.2,0.0,0,1018.4,5,8,2.3,""
"2019-02-04 03:19:00",5.3,"",2.2,0.0,0,1018.4,5,9,2.2,""
"2019-02-04 03:20:00",5.2,"",2.2,0.0,0,1018.4,5,7,2.8,""
"2019-02-04 03:21:00",5.3,"",2.2,0.0,0,1018.4,3,5,3.5,""
"2019-02-04 03:22:00",5.3,"",2.2,0.0,0,1018.4,6,12,1.5,""
"2019-02-04 03:23:00",5.3,"",2.2,0.0,0,1018.3,6,13,1.3,""
"2019-02-04 03:24:00",5.3,"",2.4,0.0,0,1018.3,2,5,3.5,""
"2019-02-04 03:25:00",5.3,"",2.4,0.0,0,1018.2,4,6,3.1,""
"2019-02-04 03:26:00",5.3,"",2.4,0.0,0,1018.3,3,5,3.5,""
"2019-02-04 03:27:00",5.3,"",2.4,0.0,0,1018.1,3,10,2.0,""
"2019-02-04 03:28:00",5.3,"",2.4,0.0,0,1018.1,3,4,3.9,""
"2019-02-04 03:29:00",5.3,"",2.4,0.0,0,1018.1,2,4,3.9,""
"2019-02-04 03:30:00",5.3,"",2.4,0.0,0,1018.1,2,4,3.9,""
"2019-02-04 03:31:00",5.3,"",2.4,0.0,0,1018.1,3,5,3.5,""
"2019-02-04 03:32:00",5.3,"",2.4,0.0,0,1018.1,4,10,2.0,""
"2019-02-04 03:33:00",5.3,"",2.4,0.0,0,1018.1,4,6,3.1,""
"2019-02-04 03:34:00",5.3,"",2.4,0.0,0,1018.0,2,5,3.5,""
"2019-02-04 03:35:00",5.3,"",2.4,0.0,0,1018.0,3,6,3.1,""
"2019-02-04 03:36:00",5.2,"",2.4,0.0,0,1017.9,6,10,2.0,""
"2019-02-04 03:37:00",5.2,"",2.4,0.0,0,1018.0,3,7,2.8,""
"2019-02-04 03:38:00",5.3,"",2.4,0.0,0,1017.9,5,10,2.0,""
"2019-02-04 03:39:00",5.2,"",2.6,0.0,0,1017.9,5,10,2.0,""
"2019-02-04 03:40:00",5.3,"",2.6,0.0,0,1017.9,2,5,3.5,""
"2019-02-04 03:41:00",5.3,"",2.6,0.0,0,1017.9,3,5,3.5,""
"2019-02-04 03:42:00",5.3,"",2.6,0.0,0,1017.8,3,8,2.5,""
"2019-02-04 03:43:00",5.2,"",2.6,0.0,0,1017.9,3,6,3.0,""
"2019-02-04 03:44:00",5.2,"",2.6,0.0,0,1017.8,2,4,3.8,""
"2019-02-04 03:45:00",5.3,"",2.6,0.0,0,1017.8,5,8,2.3,""
"2019-02-04 03:46:00",5.2,"",2.6,0.0,0,1017.8,4,9,2.1,""
"2019-02-04 03:47:00",5.2,"",2.6,0.0,0,1017.8,5,8,2.3,""
"2019-02-04 03:48:00",5.2,"",2.6,0.0,0,1017.8,4,7,2.6,""
"2019-02-04 03:49:00",5.2,"",2.6,0.0,0,1017.8,3,5,3.4,""
"2019-02-04 03:50:00",5.2,"",2.6,0.0,0,1017.8,3,4,3.8,""
"2019-02-04 03:51:00",5.2,"",2.6,0.0,0,1017.7,3,6,3.0,""
"2019-02-04 03:52:00",5.2,"",2.6,0.0,0,1017.7,3,4,3.8,""
"2019-02-04 03:53:00",5.2,"",2.6,0.0,0,1017.8,4,8,2.3,""
"2019-02-04 03:54:00",5.2,"",2.8,0.0,0,1017.8,6,14,1.0,""
"2019-02-04 03:55:00",5.2,"",2.8,0.0,0,1017.8,4,7,2.6,""
"2019-02-04 03:56:00",5.2,"",2.8,0.0,0,1017.8,4,8,2.3,""
"2019-02-04 03:57:00",5.2,"",2.8,0.0,0,1017.7,4,6,3.0,""
"2019-02-04 03:58:00",5.2,"",2.8,0.0,0,1017.7,3,4,3.9,""
"2019-02-04 03:59:00",5.2,"",2.8,0.0,0,1017.6,4,7,2.6,""
"2019-02-04 04:00:00",5.3,"",2.8,0.0,0,1017.7,5,8,2.5,""
"2019-02-04 04:01:00",5.2,"",2.8,0.0,0,1017.6,4,5,3.4,""
"2019-02-04 04:02:00",5.2,"",2.8,0.0,0,1017.6,6,10,1.8,""
"2019-02-04 04:03:00",5.2,"",2.8,0.0,0,1017.6,2,4,3.8,""
"2019-02-04 04:04:00",5.2,"",2.8,0.0,0,1017.6,4,6,3.0,""
"2019-02-04 04:05:00",5.2,"",2.8,0.0,0,1017.6,6,11,1.6,""
"2019-02-04 04:06:00",5.2,"",2.8,0.0,0,1017.5,3,6,3.0,""
"2019-02-04 04:07:00",5.2,"",2.8,0.0,0,1017.5,6,11,1.7,""
"2019-02-04 04:08:00",5.2,"",2.8,0.0,0,1017.5,2,4,3.8,""
"2019-02-04 04:09:00",5.3,"",3.0,0.0,0,1017.6,8,15,0.9,""
"2019-02-04 04:10:00",5.3,"",3.0,0.0,0,1017.4,4,8,2.5,""
"2019-02-04 04:11:00",5.3,"",3.0,0.0,0,1017.5,2,3,"",""
"2019-02-04 04:12:00",5.3,"",3.0,0.0,0,1017.5,2,3,"",""
"2019-02-04 04:13:00",5.3,"",3.0,0.0,0,1017.6,2,3,"",""
"2019-02-04 04:14:00",5.3,"",3.0,0.0,0,1017.6,2,4,3.9,""
"2019-02-04 04:15:00",5.3,"",3.0,0.0,0,1017.6,4,10,2.0,""
"2019-02-04 04:16:00",5.3,"",3.0,0.0,0,1017.6,5,7,2.8,""
"2019-02-04 04:17:00",5.3,"",3.0,0.0,0,1017.6,3,6,3.1,""
"2019-02-04 04:18:00",5.3,"",3.0,0.0,0,1017.6,3,5,3.5,""
"2019-02-04 04:19:00",5.3,"",3.0,0.0,0,1017.5,3,4,3.9,""
"2019-02-04 04:20:00",5.3,"",3.0,0.0,0,1017.5,2,4,3.9,""
"2019-02-04 04:21:00",5.3,"",3.0,0.0,0,1017.4,3,5,3.5,""
"2019-02-04 04:22:00",5.3,"",3.2,0.0,0,1017.3,4,7,2.8,""
"2019-02-04 04:23:00",5.3,"",3.2,0.0,0,1017.4,3,6,3.1,""
"2019-02-04 04:24:00",5.3,"",3.2,0.0,0,1017.4,5,10,2.0,""
"2019-02-04 04:25:00",5.3,"",3.2,0.0,0,1017.3,3,10,2.0,""
"2019-02-04 04:26:00",5.3,"",3.2,0.0,0,1017.4,7,11,1.7,""
"2019-02-04 04:27:00",5.3,"",3.2,0.0,0,1017.3,6,9,2.2,""
"2019-02-04 04:28:00",5.3,"",3.2,0.0,0,1017.4,4,7,2.8,""
"2019-02-04 04:29:00",5.3,"",3.4,0.0,0,1017.3,4,8,2.5,""
"2019-02-04 04:30:00",5.3,"",3.4,0.0,0,1017.3,4,7,2.8,""
"2019-02-04 04:31:00",5.3,"",3.4,0.0,0,1017.4,7,11,1.7,""
"2019-02-04 04:32:00",5.3,"",3.4,0.0,0,1017.4,4,7,2.8,""
"2019-02-04 04:33:00",5.3,"",3.4,0.0,0,1017.3,4,7,2.8,""
"2019-02-04 04:34:00",5.3,"",3.4,0.0,0,1017.3,2,3,"",""
"2019-02-04 04:35:00",5.3,"",3.4,0.0,0,1017.2,3,6,3.1,""
"2019-02-04 04:36:00",5.3,"",3.4,0.0,0,1017.3,4,5,3.5,""
"2019-02-04 04:37:00",5.3,"",3.6,0.0,0,1017.2,5,10,2.0,""
"2019-02-04 04:38:00",5.3,"",3.6,0.0,0,1017.3,2,5,3.5,""
"2019-02-04 04:39:00",5.3,"",3.6,0.0,0,1017.2,4,7,2.8,""
"2019-02-04 04:40:00",5.3,"",3.6,0.0,0,1017.2,3,5,3.5,""
"2019-02-04 04:41:00",5.3,"",3.6,0.0,0,1017.2,5,8,2.5,""
"2019-02-04 04:42:00",5.3,"",3.6,0.0,0,1017.2,4,8,2.5,""
"2019-02-04 04:43:00",5.3,"",3.6,0.0,0,1017.2,2,4,3.9,""
"2019-02-04 04:44:00",5.3,"",3.8,0.0,0,1017.2,2,4,3.9,""
"2019-02-04 04:45:00",5.3,"",3.8,0.0,0,1017.2,4,5,3.5,""
"2019-02-04 04:46:00",5.3,"",3.8,0.0,0,1017.3,6,12,1.5,""
"2019-02-04 04:47:00",5.3,"",3.8,0.0,0,1017.2,6,14,1.2,""
"2019-02-04 04:48:00",5.3,"",3.8,0.0,0,1017.3,4,8,2.5,""
"2019-02-04 04:49:00",5.3,"",3.8,0.0,0,1017.2,4,8,2.5,""
"2019-02-04 04:50:00",5.3,"",3.8,0.0,0,1017.2,3,4,3.9,""
"2019-02-04 04:51:00",5.3,"",4.0,0.0,0,1017.1,2,6,3.1,""
"2019-02-04 04:52:00",5.3,"",4.0,0.0,0,1017.1,2,4,3.9,""
"2019-02-04 04:53:00",5.3,"",4.0,0.0,0,1017.1,2,3,"",""
"2019-02-04 04:54:00",5.3,"",4.0,0.0,0,1017.1,3,9,2.2,""
"2019-02-04 04:55:00",5.3,"",4.0,0.0,0,1017.1,4,11,1.7,""
"2019-02-04 04:56:00",5.3,"",4.2,0.0,0,1017.2,6,12,1.5,""
"2019-02-04 04:57:00",5.3,"",4.2,0.0,0,1017.1,6,9,2.2,""
"2019-02-04 04:58:00",5.3,"",4.2,0.0,0,1017.2,4,9,2.2,""
"2019-02-04 04:59:00",5.3,"",4.2,0.0,0,1017.1,3,4,3.9,""
"2019-02-04 05:00:00",5.3,"",4.2,0.0,0,1017.0,8,14,1.2,""
"2019-02-04 05:01:00",5.3,"",4.2,0.0,0,1017.1,4,8,2.5,""
"2019-02-04 05:02:00",5.3,"",4.4,0.0,0,1017.1,4,5,3.5,""
"2019-02-04 05:03:00",5.3,"",4.4,0.0,0,1017.1,5,10,2.0,""
"2019-02-04 05:04:00",5.3,"",4.4,0.0,0,1017.0,8,13,1.3,""
"2019-02-04 05:05:00",5.3,"",4.4,0.0,0,1017.0,6,10,2.0,""
"2019-02-04 05:06:00",5.3,"",4.4,0.0,0,1017.2,8,15,1.0,""
"2019-02-04 05:07:00",5.3,"",4.6,0.0,0,1017.1,5,8,2.5,""
"2019-02-04 05:08:00",5.3,"",4.6,0.0,0,1017.0,3,5,3.5,""
"2019-02-04 05:09:00",5.3,"",4.6,0.0,0,1017.0,4,5,3.5,""
"2019-02-04 05:10:00",5.3,"",4.6,0.0,0,1017.0,5,10,2.0,""
"2019-02-04 05:11:00",5.3,"",4.6,0.0,0,1016.9,5,11,1.7,""
"2019-02-04 05:12:00",5.3,"",4.6,0.0,0,1017.0,3,8,2.5,""
"2019-02-04 05:13:00",5.2,"",4.8,0.0,0,1017.0,7,12,1.5,""
"2019-02-04 05:14:00",5.3,"",4.8,0.0,0,1017.0,4,7,2.8,""
"2019-02-04 05:15:00",5.3,"",4.8,0.0,0,1016.9,4,11,1.7,""
"2019-02-04 05:16:00",5.3,"",4.8,0.0,0,1017.0,6,10,2.0,""
"2019-02-04 05:17:00",5.3,"",5.0,0.0,0,1016.9,4,10,2.0,""
"2019-02-04 05:18:00",5.3,"",5.0,0.0,0,1017.0,5,13,1.3,""
"2019-02-04 05:19:00",5.3,"",5.0,0.0,0,1017.0,7,12,1.5,""
"2019-02-04 05:20:00",5.3,"",5.0,0.0,0,1016.9,5,15,1.0,""
"2019-02-04 05:21:00",5.3,"",5.0,0.0,0,1017.0,8,16,0.8,""
"2019-02-04 05:22:00",5.3,"",5.2,0.0,0,1017.0,7,11,1.7,""
"2019-02-04 05:23:00",5.3,"",5.2,0.0,0,1017.0,4,8,2.5,""
"2019-02-04 05:24:00",5.3,"",5.2,0.0,0,1016.9,3,5,3.5,""
"2019-02-04 05:25:00",5.3,"",5.2,0.0,0,1016.9,3,6,3.1,""
"2019-02-04 05:26:00",5.3,"",5.2,0.0,0,1017.0,4,8,2.5,""
"2019-02-04 05:27:00",5.2,"",5.4,0.0,0,1016.9,5,7,2.6,""
"2019-02-04 05:28:00",5.2,"",5.4,0.0,0,1016.8,4,7,2.6,""
"2019-02-04 05:29:00",5.2,"",5.4,0.0,0,1016.8,5,9,2.1,""
"2019-02-04 05:30:00",5.2,"",5.4,0.0,0,1016.8,4,8,2.3,""
"2019-02-04 05:31:00",5.2,"",5.4,0.0,0,1016.8,6,10,1.8,""
"2019-02-04 05:32:00",5.2,"",5.4,0.0,0,1016.8,5,7,2.6,""
"2019-02-04 05:33:00",5.2,"",5.6,0.0,0,1016.8,6,10,1.8,""
"2019-02-04 05:34:00",5.2,"",5.6,0.0,0,1016.7,5,7,2.6,""
"2019-02-04 05:35:00",5.2,"",5.6,0.0,0,1016.7,6,9,2.1,""
"2019-02-04 05:36:00",5.2,"",5.6,0.0,0,1016.7,6,10,1.8,""
"2019-02-04 05:37:00",5.2,"",5.6,0.0,0,1016.5,4,8,2.3,""
"2019-02-04 05:38:00",5.2,"",5.6,0.0,0,1016.7,5,9,2.1,""
"2019-02-04 05:39:00",5.1,"",5.8,0.0,0,1016.6,5,10,1.8,""
"2019-02-04 05:40:00",5.1,"",5.8,0.0,0,1016.6,3,8,2.2,""
"2019-02-04 05:41:00",5.1,"",5.8,0.0,0,1016.6,5,10,1.7,""
"2019-02-04 05:42:00",5.1,"",5.8,0.0,0,1016.6,4,6,2.9,""
"2019-02-04 05:43:00",5.1,"",5.8,0.0,0,1016.6,4,11,1.5,""
"2019-02-04 05:44:00",5.1,"",6.0,0.0,0,1016.5,4,6,2.9,""
"2019-02-04 05:45:00",5.1,"",6.0,0.0,0,1016.6,8,14,0.9,""
"2019-02-04 05:46:00",5.1,"",6.0,0.0,0,1016.4,5,13,1.1,""
"2019-02-04 05:47:00",5.1,"",6.0,0.0,0,1016.4,5,12,1.3,""
"2019-02-04 05:48:00",5.1,"",6.0,0.0,0,1016.4,6,10,1.7,""
"2019-02-04 05:49:00",5.1,"",6.2,0.0,0,1016.4,7,12,1.3,""
"2019-02-04 05:50:00",5.1,"",6.2,0.0,0,1016.3,7,12,1.3,""
"2019-02-04 05:51:00",5.1,"",6.2,0.0,0,1016.3,4,7,2.5,""
"2019-02-04 05:52:00",5.0,"",6.4,0.0,0,1016.3,3,7,2.5,""
"2019-02-04 05:53:00",5.1,"",6.4,0.0,0,1016.3,5,7,2.4,""
"2019-02-04 05:54:00",5.1,"",6.4,0.0,0,1016.3,3,5,3.1,""
"2019-02-04 05:55:00",5.0,"",6.4,0.0,0,1016.3,3,4,3.6,""
"2019-02-04 05:56:00",5.0,"",6.6,0.0,0,1016.2,5,8,2.1,""
"2019-02-04 05:57:00",5.0,"",6.6,0.0,0,1016.2,5,9,1.8,""
"2019-02-04 05:58:00",5.0,"",6.6,0.0,0,1016.2,6,9,1.7,""
"2019-02-04 05:59:00",4.9,"",6.8,0.0,0,1016.2,4,7,2.3,""
"2019-02-04 06:00:00",4.9,"",6.8,0.0,0,1016.2,3,6,2.6,""
"2019-02-04 06:01:00",4.9,"",7.0,0.0,0,1016.1,4,8,2.0,""
"2019-02-04 06:02:00",4.9,"",7.0,0.0,0,1016.2,2,4,3.5,""
"2019-02-04 06:03:00",4.9,"",7.2,0.0,0,1016.1,3,6,2.6,""
"2019-02-04 06:04:00",4.9,"",7.2,0.0,0,1016.2,4,7,2.3,""
"2019-02-04 06:05:00",4.9,"",7.4,0.0,0,1016.0,4,9,1.7,""
"2019-02-04 06:06:00",4.9,"",7.4,0.0,0,1016.1,6,11,1.2,""
"2019-02-04 06:07:00",4.8,"",7.4,0.0,0,1016.1,5,8,1.9,""
"2019-02-04 06:08:00",4.8,"",7.4,0.0,0,1016.1,4,6,2.5,""
"2019-02-04 06:09:00",4.8,"",7.4,0.0,0,1015.9,3,5,2.9,""
"2019-02-04 06:10:00",4.8,"",7.6,0.0,0,1015.9,5,8,1.9,""
"2019-02-04 06:11:00",4.8,"",7.6,0.0,0,1015.9,4,5,2.9,""
"2019-02-04 06:12:00",4.8,"",7.6,0.0,0,1015.8,4,10,1.3,""
"2019-02-04 06:13:00",4.8,"",7.6,0.0,0,1015.8,7,12,0.9,""
"2019-02-04 06:14:00",4.8,"",7.6,0.0,0,1015.7,4,6,2.5,""
"2019-02-04 06:15:00",4.8,"",7.8,0.0,0,1015.8,5,8,1.9,""
"2019-02-04 06:16:00",4.8,"",7.8,0.0,0,1015.7,6,13,0.7,""
"2019-02-04 06:17:00",4.8,"",7.8,0.0,0,1015.7,4,9,1.6,""
"2019-02-04 06:18:00",4.8,"",7.8,0.0,0,1015.6,5,8,1.9,""
"2019-02-04 06:19:00",4.8,"",7.8,0.0,0,1015.7,4,8,1.9,""
"2019-02-04 06:20:00",4.8,"",7.8,0.0,0,1015.6,5,8,1.9,""
"2019-02-04 06:21:00",4.8,"",8.0,0.0,0,1015.5,5,11,1.1,""
"2019-02-04 06:22:00",4.8,"",8.0,0.0,0,1015.6,8,13,0.7,""
"2019-02-04 06:23:00",4.8,"",8.2,0.0,0,1015.5,6,11,1.1,""
"2019-02-04 06:24:00",4.8,"",8.2,0.0,0,1015.6,8,13,0.7,""
"2019-02-04 06:25:00",4.8,"",8.2,0.0,0,1015.6,4,11,1.1,""
"2019-02-04 06:26:00",4.8,"",8.2,0.0,0,1015.6,8,13,0.7,""
"2019-02-04 06:27:00",4.8,"",8.4,0.0,0,1015.5,5,12,0.9,""
"2019-02-04 06:28:00",4.8,"",8.4,0.0,0,1015.5,3,6,2.5,""
"2019-02-04 06:29:00",4.8,"",8.4,0.0,0,1015.5,4,10,1.3,""
"2019-02-04 06:30:00",4.8,"",8.4,0.0,0,1015.5,4,9,1.6,""
"2019-02-04 06:31:00",4.8,"",8.4,0.0,0,1015.6,3,5,2.9,""
"2019-02-04 06:32:00",4.8,"",8.4,0.0,0,1015.6,7,19,"-0.3",""
"2019-02-04 06:33:00",4.8,"",8.6,0.0,0,1015.5,7,14,0.5,""
"2019-02-04 06:34:00",4.9,"",8.6,0.0,0,1015.5,4,9,1.7,""
"2019-02-04 06:35:00",4.9,"",8.6,0.0,0,1015.5,4,7,2.2,""
"2019-02-04 06:36:00",4.9,"",8.6,0.0,0,1015.5,3,6,2.6,""
"2019-02-04 06:37:00",4.9,"",8.6,0.0,0,1015.4,4,7,2.3,""
"2019-02-04 06:38:00",4.9,"",8.6,0.0,0,1015.5,6,10,1.5,""
"2019-02-04 06:39:00",4.9,"",8.6,0.0,0,1015.6,4,7,2.3,""
"2019-02-04 06:40:00",4.9,"",8.8,0.0,0,1015.5,6,12,1.0,""
"2019-02-04 06:41:00",4.9,"",8.8,0.0,0,1015.6,4,6,2.6,""
"2019-02-04 06:42:00",4.9,"",8.8,0.0,0,1015.6,3,6,2.6,""
"2019-02-04 06:43:00",4.9,"",8.8,0.0,0,1015.6,3,7,2.3,""
"2019-02-04 06:44:00",4.9,"",8.8,0.0,0,1015.5,5,8,2.0,""
"2019-02-04 06:45:00",4.9,"",8.8,0.0,0,1015.5,2,6,2.6,""
"2019-02-04 06:46:00",4.9,"",8.8,0.0,0,1015.5,2,5,3.0,""
"2019-02-04 06:47:00",4.9,"",8.8,0.0,0,1015.5,4,14,0.6,""
"2019-02-04 06:48:00",4.9,"",8.8,0.0,0,1015.6,6,11,1.2,""
"2019-02-04 06:49:00",4.9,"",8.8,0.0,0,1015.5,6,13,0.8,""
"2019-02-04 06:50:00",4.9,"",9.0,0.0,0,1015.5,5,11,1.2,""
"2019-02-04 06:51:00",4.9,"",9.0,0.0,0,1015.6,6,11,1.2,""
"2019-02-04 06:52:00",4.9,"",9.0,0.0,0,1015.5,3,5,3.0,""
"2019-02-04 06:53:00",4.9,"",9.0,0.0,0,1015.6,5,8,2.0,""
"2019-02-04 06:54:00",4.9,"",9.0,0.0,0,1015.6,3,9,1.7,""
"2019-02-04 06:55:00",4.9,"",9.0,0.0,0,1015.6,5,9,1.7,""
"2019-02-04 06:56:00",4.9,"",9.0,0.0,0,1015.6,5,10,1.5,""